ABS-4 (MOBISAT-1)

Last updated on Jan. 21, 2021, 6:16 a.m. UTC

1 28184U 04007A   21020.92896431  .00000049  00000-0  00000-0 0  9994
2 28184   1.0547  94.6280 0005212 210.2019 211.1094  1.00269202 32551
UTC
Height (km)
Latitude
Longitude
Inclination
Orbital Period
UTC large
Height (km)
Speed (km/s)
/
Latitude / Longitude
Inclination (degrees)
Orbital Period (minutes)
Azimuth
Elevation
Range (km)
Doppler Factor
iOS Compass Heading
iOS Angle

Next 30 passes for location: Hong Kong

Rise time Rise Azimuth (degrees) Set time Set Azimuth (degrees) Duration Max altitude (degrees)

No matching passes for this satellites